COSMOS 413

导读

COSMOS 413(宇宙413)是苏联(CIS前身)于1971年5月7日发射的军用卫星,属于苏联“宇宙”系列卫星家族。该系列是苏联冷战时期规模最大的卫星项目,涵盖侦察、技术试验、航天测绘等多种军事航天任务。COSMOS 413入轨后长期在近地轨道运行,完成了既定航天试验任务,最终已再入大气层销毁,它的试验数据为后续苏联航天技术发展提供了重要支撑。

基本信息
目录编号:
5212
目录名称:
COSMOS 413
国际标识:
1971-041C
轨道中心:
EARTH
卫星名称:
COSMOS 413
卫星全名:
--
卫星状态:
在轨 (已飞行20219 天)
发射日期:
1971-05-07 UTC
国别 :
俄罗斯(独联体) (CIS)
星等 :
--
该卫星已列入 空间交会检测服务 Space Conjunction Data Service (SCDS) ,当前飞行风险评估等级: 无高风险
轨道信息
数据来源 国际轨道数据 AOE轨道数据
星历时间 2026-09-14T11:32:47+0800
4小时前
查看轨道信息
2026-09-10T00:00:00+0800
4天前
查看轨道信息
半长轴 7868.442km 7868.444km
偏心率 0.002103 0.0020927
轨道倾角 74.016° 74.017°
近地点辐角 64.347° 71.064°
升交点赤经 150.567° 156.458°
平近点角 8.170° 102.290°
近地点 1473.757km 1473.84km
远地点 1506.853km 1506.774km
周期 115.769分钟 115.769分钟
每日圈数 12.438547 12.438542
详细信息
使用方式:
暂无
2D轨道图
3D轨道图
轨道高度分析图
轨道倾角分析图
轨道综合分析图
查看轨道综合分析图
与全量物体交会距离演化趋势 订阅飞行安全评估服务
与全量物体交会风险概率演化趋势 订阅飞行安全评估服务